2023�N�x�@��C������Ԃɂ�鑪�茋��,,,,,,,,,,,,,,,
,,,,,,,,,,,,,,,
�P�@����n�_,,,,,,,,,,,,,,,
���i�s�I�b(���i�s�I�b���r��268�Ԓn),,,,,,,,,,,,,,,
,,,,,,,,,,,,,,,
�Q�@���Ԓl�i�m��l�j��2023�N11��29���`2023�N12��21��,,,,,,,,,,,,,,,
,,,,,,,,,,,,,,,
,�N,��,��,��,SO2,SPM,Ox,CO,NO,NO2,PM2.5,���x,���x,����,����
,,,,,ppm,mg/m3,ppm,ppm,ppm,ppm,��g/m3,��,%,�ő�,m/s
R5,2023,11,29,1,***,0.006,0.023,***,***,***,4,7.2,77.2,CALM,0
R5,2023,11,29,2,0.001,0.008,0.014,0.2,0.001,0.01,6,5.6,81.8,E,0.6
R5,2023,11,29,3,0.001,0.009,0.008,0.2,0.001,0.013,7,5,84.8,E,0.7
R5,2023,11,29,4,0,0.008,0.005,0.3,0.002,0.016,6,4.9,85,E,0.3
R5,2023,11,29,5,0,0.007,0.003,0.3,0.004,0.018,6,4,84.5,CALM,0.2
R5,2023,11,29,6,0,0.006,0.001,0.3,0.008,0.019,7,3.9,85.9,CALM,0.1
R5,2023,11,29,7,0,0.011,0.001,0.3,0.017,0.02,7,3.6,85.9,ENE,0.8
R5,2023,11,29,8,0.001,0.012,0.005,0.3,0.015,0.019,10,6.8,74.3,E,0.9
R5,2023,11,29,9,0.001,0.009,0.018,0.3,0.006,0.011,5,9.8,60.2,ESE,0.6
R5,2023,11,29,10,0.001,0.008,0.027,0.3,0.004,0.009,9,11.7,50.5,ESE,0.9
R5,2023,11,29,11,0.001,0.013,0.032,0.3,0.004,0.009,8,12.2,45.3,W,1.5
R5,2023,11,29,12,0.001,0.015,0.033,0.3,0.004,0.01,11,12.9,46.4,ENE,0.4
R5,2023,11,29,13,0.001,0.013,0.035,0.3,0.002,0.009,7,14.3,41.6,W,2.2
R5,2023,11,29,14,0.001,0.012,0.038,0.3,0.002,0.007,9,14.9,40.7,W,3.3
R5,2023,11,29,15,0.001,0.013,0.035,0.3,0.002,0.008,10,13.8,45,W,2.6
R5,2023,11,29,16,0.001,0.014,0.033,0.3,0.002,0.01,10,13.3,47.3,W,2.9
R5,2023,11,29,17,0.001,0.01,0.032,0.3,0.002,0.008,7,12.2,53.7,WSW,1.9
R5,2023,11,29,18,0.001,0.008,0.032,0.2,0.002,0.007,6,11.8,56.7,W,2.8
R5,2023,11,29,19,0.001,0.009,0.029,0.3,0.001,0.01,5,10.8,62.4,NNE,0.9
R5,2023,11,29,20,0.001,0.009,0.025,0.3,0.001,0.011,9,9.8,67.5,CALM,0.2
R5,2023,11,29,21,0.001,0.006,0.024,0.3,0.001,0.011,6,9.3,68.5,N,0.3
R5,2023,11,29,22,0.001,0.008,0.021,0.3,0.001,0.011,6,8.9,71.4,WSW,0.4
R5,2023,11,29,23,0.001,0.008,0.017,0.3,0.001,0.012,7,8.1,75.3,E,0.3
R5,2023,11,29,24,0.001,0.007,0.013,0.3,0.001,0.013,5,7.7,78,E,0.6
R5,2023,11,30,1,0.001,0.008,0.016,0.3,0.001,0.011,7,8.3,73.4,ESE,0.7
R5,2023,11,30,2,0,0.01,0.017,0.3,0.001,0.01,6,8.1,75.3,E,1.4
R5,2023,11,30,3,0.001,0.007,0.018,0.2,0.001,0.008,8,8.5,71.5,E,0.7
R5,2023,11,30,4,0.001,0.01,0.019,0.2,0.001,0.009,6,9.3,69.1,SE,0.3
R5,2023,11,30,5,0.001,0.012,0.018,0.2,0.001,0.01,7,8.8,72.8,ENE,0.4
R5,2023,11,30,6,0.001,0.01,0.012,0.2,0.001,0.013,9,8.2,76.2,ENE,0.5
R5,2023,11,30,7,0.001,0.011,0.002,0.3,0.01,0.022,10,7.2,81,E,0.5
R5,2023,11,30,8,0,0.015,0.004,0.3,0.017,0.023,10,7.4,77.9,E,1.4
R5,2023,11,30,9,0.001,0.014,0.007,0.4,0.016,0.021,11,9.1,70,E,0.9
R5,2023,11,30,10,0.001,0.015,0.015,0.4,0.005,0.02,11,10.2,67.5,ENE,0.7
R5,2023,11,30,11,0.001,0.008,0.027,0.3,0.002,0.011,7,10.6,64.2,NNE,1.6
R5,2023,11,30,12,0.001,0.005,0.031,0.3,0.002,0.008,4,10.9,63.9,WSW,1.2
R5,2023,11,30,13,0.001,0.006,0.032,0.3,0.001,0.008,4,10.2,64.4,W,2.8
R5,2023,11,30,14,0.001,0.004,0.035,0.3,0.002,0.005,3,11.1,64.1,W,1.7
R5,2023,11,30,15,0,0.004,0.035,0.2,0.002,0.006,5,11.7,53.5,W,2.6
R5,2023,11,30,16,0.001,0.004,0.035,0.2,0.002,0.006,4,11,51.6,SW,2.4
R5,2023,11,30,17,0.001,0.004,0.033,0.2,0.002,0.007,6,10.4,56.3,W,2.7
R5,2023,11,30,18,0.001,0.004,0.033,0.2,0,0.005,5,9.4,60.1,WSW,1.5
R5,2023,11,30,19,0,0.005,0.03,0.2,0.001,0.006,5,8.5,66,W,2.9
R5,2023,11,30,20,0.001,0.003,0.028,0.2,0.001,0.007,2,7.8,67,ESE,0.8
R5,2023,11,30,21,0.001,0.002,0.027,0.2,0.001,0.007,1,7.3,70.5,E,1
R5,2023,11,30,22,0,0.002,0.023,0.2,0.001,0.01,2,7.2,70.9,W,2.3
R5,2023,11,30,23,0.001,0.003,0.025,0.2,0,0.007,2,6.9,73.2,SW,0.4
R5,2023,11,30,24,0,0.002,0.021,0.2,0,0.008,3,6.3,74.3,NNE,1
R5,2023,12,1,1,0,0.003,0.016,0.2,0.001,0.011,5,6.2,72.9,NNE,1.2
R5,2023,12,1,2,0.001,0.005,0.012,0.2,0.001,0.012,7,5.6,74.7,NW,0.4
R5,2023,12,1,3,0,0.006,0.009,0.2,0.001,0.012,5,5.1,79.3,SE,0.3
R5,2023,12,1,4,0,0.005,0.005,0.2,0.001,0.013,6,4.6,80.8,E,1.1
R5,2023,12,1,5,0.001,0.007,0.007,0.2,0.001,0.012,6,5,77,CALM,0.2
R5,2023,12,1,6,0.001,0.005,0.004,0.2,0.004,0.015,2,4.7,77.2,CALM,0.1
R5,2023,12,1,7,0,0.004,0.001,0.3,0.017,0.018,5,3,84.4,E,0.9
R5,2023,12,1,8,0,0.004,0.002,0.3,0.037,0.019,6,4.8,74.6,CALM,0
R5,2023,12,1,9,0.001,0.006,0.01,0.3,0.017,0.015,7,7.7,62.6,W,0.8
R5,2023,12,1,10,0.001,0.006,0.017,0.4,0.008,0.012,5,9.2,59.8,WSW,0.8
R5,2023,12,1,11,0.001,0.005,0.023,0.3,0.006,0.011,2,9.7,58.4,W,1.1
R5,2023,12,1,12,0.001,0.004,0.028,0.3,0.003,0.009,4,10.3,54.5,N,1.2
R5,2023,12,1,13,0.001,0.006,0.027,0.3,0.003,0.01,4,10.6,54.2,SE,0.6
R5,2023,12,1,14,0.001,0.007,0.032,0.3,0.002,0.006,4,11.1,48.2,WSW,1.3
R5,2023,12,1,15,0.001,0.006,0.031,0.3,0.003,0.007,6,12.1,45,WSW,1.8
R5,2023,12,1,16,0.001,0.005,0.032,0.3,0.002,0.006,3,11.3,45.9,W,2.2
R5,2023,12,1,17,0.001,0.008,0.029,0.2,0.001,0.008,7,10.5,51.1,WSW,1.2
R5,2023,12,1,18,0.001,0.007,0.024,0.3,0.001,0.01,7,9.1,61.1,NNE,1.7
R5,2023,12,1,19,0.001,0.007,0.018,0.3,0.001,0.013,6,7.5,68.5,E,1
R5,2023,12,1,20,0,0.005,0.018,0.3,0.002,0.013,6,8.1,66.8,CALM,0.1
R5,2023,12,1,21,0.001,0.008,0.017,0.3,0.001,0.012,5,8.2,66.3,CALM,0
R5,2023,12,1,22,0,0.01,0.015,0.3,0.001,0.015,5,7.9,69.5,E,0.6
R5,2023,12,1,23,0.001,0.007,0.012,0.4,0.001,0.014,6,7.8,69.6,CALM,0.2
R5,2023,12,1,24,0.001,0.007,0.02,0.3,0.001,0.01,7,8.1,65.7,WSW,1.3
R5,2023,12,2,1,0.001,0.004,0.024,0.2,0,0.007,4,8.4,62.7,WSW,0.7
R5,2023,12,2,2,0.001,0.003,0.027,0.2,0,0.005,5,8.4,59.5,WSW,1.4
R5,2023,12,2,3,0.001,0.004,0.028,0.2,0,0.004,6,8.1,59.3,W,0.8
R5,2023,12,2,4,0.001,0.004,0.027,0.2,0,0.004,4,7.9,62.1,W,1.1
R5,2023,12,2,5,0.001,0.003,0.03,0.2,0,0.003,4,7.7,62.2,W,0.9
R5,2023,12,2,6,0.001,0.005,0.023,0.2,0.001,0.007,4,5.7,71.6,CALM,0.1
R5,2023,12,2,7,0.001,0.006,0.009,0.2,0.004,0.016,3,4.3,80.4,E,0.8
R5,2023,12,2,8,0.001,0.006,0.004,0.3,0.015,0.021,4,6,75.5,E,0.7
R5,2023,12,2,9,0.001,0.005,0.021,0.3,0.006,0.011,4,8.4,57.9,WNW,0.5
R5,2023,12,2,10,0.001,0.003,0.032,0.2,0.002,0.006,3,9.5,52.6,W,1.6
R5,2023,12,2,11,0.001,0.004,0.032,0.2,0.003,0.007,6,9.9,54.4,W,1.4
R5,2023,12,2,12,0.001,0.006,0.036,0.2,0.002,0.005,5,10.4,54.4,W,2.8
R5,2023,12,2,13,0.001,0.005,0.037,0.2,0.001,0.004,4,10.4,55.7,NNE,1.5
R5,2023,12,2,14,0.001,0.004,0.038,0.2,0.001,0.004,1,11.4,51.4,W,1.7
R5,2023,12,2,15,0.001,0.004,0.038,0.2,0.001,0.003,4,11.3,54.3,W,2.9
R5,2023,12,2,16,0.001,0.002,0.037,0.2,0.001,0.004,3,10.1,57,W,2.9
R5,2023,12,2,17,0.001,0.006,0.036,0.2,0.001,0.005,3,9.5,59.9,W,2.1
R5,2023,12,2,18,0.001,0.005,0.034,0.2,0,0.005,4,8.8,62.5,W,1.3
R5,2023,12,2,19,0.001,0.003,0.032,0.2,0.001,0.007,3,8.3,65.3,W,1
R5,2023,12,2,20,0.001,0.005,0.033,0.2,0,0.006,2,8.6,64.6,W,1.4
R5,2023,12,2,21,0.001,0.003,0.033,0.2,0.001,0.006,3,8.3,67.7,W,0.7
R5,2023,12,2,22,0.001,0.003,0.026,0.2,0.001,0.009,3,6.9,75.5,CALM,0
R5,2023,12,2,23,0,0.004,0.018,0.3,0.001,0.012,4,4.8,82.4,E,0.9
R5,2023,12,2,24,0,0.003,0.014,0.3,0.001,0.009,6,5.2,82.1,WNW,0.5
R5,2023,12,3,1,0,0.003,0.014,0.2,0.001,0.008,4,4.8,81.1,E,1.1
R5,2023,12,3,2,0,0.003,0.014,0.2,0,0.005,3,3.8,83.6,E,0.9
R5,2023,12,3,3,0,0.003,0.011,0.2,0,0.006,6,3.1,85.7,ENE,0.6
R5,2023,12,3,4,0,0.003,0.007,0.2,0.001,0.007,2,2.6,86.8,ESE,0.6
R5,2023,12,3,5,0,0.003,0.003,0.2,0.002,0.01,3,1.7,88.3,E,0.9
R5,2023,12,3,6,0,0.003,0.003,0.2,0.002,0.008,7,1.8,88.3,CALM,0.1
R5,2023,12,3,7,0,0.003,0.002,0.2,0.004,0.011,4,1.6,88.6,E,0.9
R5,2023,12,3,8,0.001,0.005,0.007,0.3,0.005,0.009,6,4.1,79.1,CALM,0.2
R5,2023,12,3,9,0,0.007,0.019,0.3,0.002,0.005,2,7.7,66.9,E,2
R5,2023,12,3,10,0.002,0.005,0.026,0.3,0.002,0.006,7,9.7,55.3,W,0.8
R5,2023,12,3,11,0.005,0.012,0.027,0.4,0.003,0.01,11,10.4,53.4,SSE,0.6
R5,2023,12,3,12,0.006,0.015,0.03,0.5,0.005,0.011,12,11.5,49.9,W,1.3
R5,2023,12,3,13,0.003,0.014,0.032,0.4,0.002,0.011,11,11.4,52.2,WSW,1.3
R5,2023,12,3,14,0.001,0.012,0.033,0.3,0.001,0.007,10,11.6,55.6,W,3.2
R5,2023,12,3,15,0.001,0.01,0.033,0.3,0.001,0.005,10,10.8,59.6,NNE,2
R5,2023,12,3,16,0.001,0.007,0.035,0.3,0.001,0.004,6,10.2,62.5,WSW,2.1
R5,2023,12,3,17,0.001,0.008,0.035,0.2,0,0.004,8,9.1,68.9,W,2.2
R5,2023,12,3,18,0.001,0.005,0.036,0.2,0,0.004,6,8.4,68.6,W,2
R5,2023,12,3,19,0,0.007,0.033,0.2,0,0.006,5,7.2,73.3,E,0.3
R5,2023,12,3,20,0.001,0.004,0.026,0.3,0.001,0.01,5,7.2,75.2,WSW,0.7
R5,2023,12,3,21,0,0.006,0.014,0.3,0.002,0.016,7,5.2,83,CALM,0.1
R5,2023,12,3,22,0,0.008,0.012,0.4,0.001,0.017,8,4.5,84.7,E,0.5
R5,2023,12,3,23,0,0.005,0.007,0.4,0.002,0.016,6,4,85.8,CALM,0
R5,2023,12,3,24,0,0.007,0.013,0.3,0.001,0.01,6,4.1,85.3,WSW,0.4
R5,2023,12,4,1,0.001,0.009,0.01,0.3,0.001,0.011,7,3.2,85.9,CALM,0.2
R5,2023,12,4,2,0.001,0.009,0.004,0.3,0.002,0.014,9,2.6,87.3,SE,0.4
R5,2023,12,4,3,0.001,0.008,0.008,0.3,0.001,0.011,7,3.3,83.2,SW,0.8
R5,2023,12,4,4,0.001,0.009,0.009,0.3,0.001,0.009,7,2.5,85.2,CALM,0.1
R5,2023,12,4,5,0.001,0.008,0.008,0.2,0.002,0.012,7,2.1,83.7,ESE,0.5
R5,2023,12,4,6,0,0.008,0.009,0.2,0.001,0.012,9,3,79.2,SW,0.5
R5,2023,12,4,7,0.001,0.01,0.006,0.3,0.004,0.016,10,2.8,82.7,NE,0.4
R5,2023,12,4,8,0.001,0.009,0.004,0.3,0.015,0.02,9,4.4,70.7,WSW,0.6
R5,2023,12,4,9,0.001,0.008,0.011,0.4,0.013,0.015,6,6.7,62.2,ENE,1
R5,2023,12,4,10,0,0.007,0.024,0.4,0.01,0.008,3,8.9,54.5,NNE,1.4
R5,2023,12,4,11,0.001,0.006,0.029,0.3,0.004,0.007,6,10.3,50.5,NW,1.2
R5,2023,12,4,12,0.001,0.009,0.029,0.3,0.005,0.01,8,11.4,46.5,W,1.7
R5,2023,12,4,13,0.001,0.01,0.033,0.3,0.005,0.01,9,12.2,43.3,W,1.8
R5,2023,12,4,14,0.001,0.008,0.036,0.3,0.003,0.008,7,12.9,41,W,3
R5,2023,12,4,15,0.001,0.009,0.037,0.2,0.002,0.007,6,13.2,44,W,1.8
R5,2023,12,4,16,0.001,0.01,0.037,0.3,0.003,0.007,8,12.6,45.5,W,1.5
R5,2023,12,4,17,0.001,0.011,0.034,0.3,0.001,0.008,9,11.4,50.8,W,1
R5,2023,12,4,18,0.001,0.01,0.019,0.3,0.005,0.019,10,8.8,63.7,E,0.6
R5,2023,12,4,19,0.001,0.015,0.002,0.5,0.011,0.031,12,6.8,71.9,ENE,0.6
R5,2023,12,4,20,0.001,0.01,0.002,0.5,0.006,0.029,9,5.5,75.7,E,0.8
R5,2023,12,4,21,0.001,0.011,0.005,0.4,0.005,0.025,10,5.4,74.2,E,0.4
R5,2023,12,4,22,0.001,0.008,0.008,0.4,0.002,0.019,8,4.7,78.1,CALM,0.1
R5,2023,12,4,23,0,0.01,0.002,0.4,0.004,0.021,6,3.6,82.8,E,0.8
R5,2023,12,4,24,0.001,0.01,0.001,0.4,0.005,0.022,6,3.8,83,CALM,0.2
R5,2023,12,5,1,0.001,0.005,0.002,0.3,0.003,0.019,7,3.2,83.4,ESE,0.7
R5,2023,12,5,2,0.001,0.009,0.001,0.3,0.005,0.019,4,3,83,ENE,0.7
R5,2023,12,5,3,0,0.01,0.002,0.3,0.003,0.017,8,3.6,83.8,CALM,0.2
R5,2023,12,5,4,0,0.008,0.002,0.3,0.003,0.017,9,3.5,83.9,ESE,0.6
R5,2023,12,5,5,0,0.01,0.001,0.3,0.009,0.017,10,4.2,82.1,SW,0.3
R5,2023,12,5,6,0.001,0.01,0.001,0.3,0.01,0.018,9,4.8,78.9,CALM,0.1
R5,2023,12,5,7,0.001,0.009,0.003,0.3,0.003,0.017,8,5.4,73.2,W,0.7
R5,2023,12,5,8,0.001,0.014,0.002,0.3,0.013,0.02,15,6.1,71.8,WSW,0.5
R5,2023,12,5,9,0.001,0.016,0.002,0.4,0.032,0.022,15,6.1,72.3,ENE,0.6
R5,2023,12,5,10,0.001,0.013,0.004,0.5,0.03,0.022,12,7.8,60,NNE,0.6
R5,2023,12,5,11,0.001,0.013,0.008,0.4,0.012,0.02,8,8.4,55.8,W,1.3
R5,2023,12,5,12,0.001,0.009,0.008,0.4,0.014,0.022,8,8.4,55.3,CALM,0.1
R5,2023,12,5,13,0.001,0.013,0.008,0.4,0.014,0.023,9,9,55.3,E,0.5
R5,2023,12,5,14,0.001,0.013,0.005,0.4,0.013,0.026,9,9.2,56.6,ENE,0.3
R5,2023,12,5,15,0.001,0.013,0.004,0.4,0.014,0.026,13,9.8,56.4,WSW,0.8
R5,2023,12,5,16,0.001,0.015,0.003,0.4,0.015,0.029,14,9.5,58,NNE,0.5
R5,2023,12,5,17,0.001,0.017,0.001,0.5,0.018,0.028,12,8.8,62.2,CALM,0.1
R5,2023,12,5,18,0.001,0.021,0.001,0.6,0.036,0.027,18,8.3,69.7,E,0.7
R5,2023,12,5,19,0.001,0.026,0.001,0.6,0.039,0.025,22,8.3,69.1,CALM,0.2
R5,2023,12,5,20,0.002,0.019,0.001,0.6,0.031,0.025,14,8.4,67.8,E,0.8
R5,2023,12,5,21,0.001,0.018,0.001,0.5,0.015,0.023,14,8.3,68.3,E,0.7
R5,2023,12,5,22,0.001,0.018,0.001,0.5,0.011,0.023,14,8.9,63.3,WSW,0.6
R5,2023,12,5,23,0.001,0.014,0.005,0.4,0.002,0.019,9,8.9,59.8,WSW,1.4
R5,2023,12,5,24,0.001,0.011,0.007,0.3,0.001,0.015,9,9,58.7,SW,0.4
R5,2023,12,6,1,***,0.009,0.007,***,***,***,12,8.7,58.4,NNE,0.7
R5,2023,12,6,2,0.001,0.011,0.007,0.3,0.001,0.013,9,8.7,62,WNW,0.4
R5,2023,12,6,3,0.001,0.012,0.006,0.2,0.001,0.012,8,7.8,69.2,CALM,0.2
R5,2023,12,6,4,0.001,0.009,0.003,0.2,0.002,0.013,7,7.8,67.4,CALM,0.1
R5,2023,12,6,5,0.001,0.009,0.002,0.2,0.005,0.014,9,7.1,74.8,ESE,0.6
R5,2023,12,6,6,0.001,0.009,0.001,0.2,0.013,0.015,9,6,78.7,CALM,0.2
R5,2023,12,6,7,0.001,0.01,0.001,0.3,0.026,0.015,9,5,81.4,CALM,0.1
R5,2023,12,6,8,0.001,0.01,0.002,0.4,0.063,0.02,10,6.7,66.6,E,0.5
R5,2023,12,6,9,0.001,0.01,0.007,0.4,0.025,0.019,5,10.4,49.5,NE,0.5
R5,2023,12,6,10,0.001,0.01,0.019,0.4,0.008,0.012,5,12.6,46.2,WNW,0.9
R5,2023,12,6,11,0.001,0.011,0.025,0.3,0.011,0.013,9,13.8,42.9,W,2.1
R5,2023,12,6,12,0.002,0.009,0.033,0.3,0.005,0.01,4,15.4,40.8,WSW,1.3
R5,2023,12,6,13,0.001,0.009,0.037,0.3,0.004,0.011,8,16.5,37.2,W,1.6
R5,2023,12,6,14,0.002,0.01,0.039,0.3,0.003,0.01,11,17,41.4,WSW,1.1
R5,2023,12,6,15,0.002,0.013,0.039,0.2,0.003,0.01,8,17.6,38.7,W,1.1
R5,2023,12,6,16,0.002,0.01,0.038,0.3,0.002,0.01,9,16.9,42.1,W,2
R5,2023,12,6,17,0.002,0.022,0.016,0.3,0.002,0.035,21,14.6,54.2,W,0.3
R5,2023,12,6,18,0.002,0.021,0.003,0.5,0.02,0.044,20,12,64.4,E,1
R5,2023,12,6,19,0.002,0.022,0.001,0.6,0.022,0.041,18,11.3,67,CALM,0.1
R5,2023,12,6,20,0.001,0.021,0.005,0.5,0.008,0.034,15,11,66.2,E,0.7
R5,2023,12,6,21,0.001,0.013,0.019,0.4,0.002,0.016,11,11,65.7,ESE,1.8
R5,2023,12,6,22,0.001,0.013,0.02,0.3,0.001,0.014,12,10.9,66.6,E,1.5
R5,2023,12,6,23,0.001,0.014,0.02,0.3,0.001,0.013,11,10.2,70.7,CALM,0.2
R5,2023,12,6,24,0.001,0.013,0.015,0.3,0.001,0.015,11,10.6,71.1,WNW,0.4
R5,2023,12,7,1,0.001,0.014,0.011,0.3,0.001,0.017,11,9.6,77.4,E,0.6
R5,2023,12,7,2,0.001,0.013,0.005,0.3,0.003,0.022,13,9.8,76.5,CALM,0
R5,2023,12,7,3,0.001,0.012,0.018,0.2,0.001,0.009,10,9.9,73.8,CALM,0.1
R5,2023,12,7,4,0.001,0.011,0.019,0.2,0.001,0.008,9,9.4,76.9,CALM,0.1
R5,2023,12,7,5,0.001,0.012,0.01,0.2,0.001,0.01,11,8.7,82.1,WNW,0.5
R5,2023,12,7,6,0.001,0.014,0.003,0.3,0.007,0.019,10,8.6,82,E,0.8
R5,2023,12,7,7,0.001,0.016,0.003,0.3,0.008,0.023,12,9.4,81.7,NE,0.5
R5,2023,12,7,8,0.001,0.015,0.004,0.4,0.025,0.021,12,9.8,78.4,SW,0.6
R5,2023,12,7,9,0.001,0.018,0.006,0.5,0.022,0.023,14,12.9,69.1,SE,0.4
R5,2023,12,7,10,0.001,0.011,0.02,0.4,0.007,0.016,7,14.6,60.4,WNW,0.8
R5,2023,12,7,11,0.004,0.021,0.02,0.5,0.009,0.023,16,15.5,57.6,WSW,1.7
R5,2023,12,7,12,0.002,0.024,0.037,0.4,0.004,0.014,17,17.1,40.1,W,4.4
R5,2023,12,7,13,0.002,0.027,0.045,0.4,0.001,0.006,22,13.7,51.3,W,5.1
R5,2023,12,7,14,0.001,0.023,0.045,0.4,0.001,0.005,19,15.1,47.8,W,4.5
R5,2023,12,7,15,0.001,0.014,0.043,0.3,0.001,0.004,11,13.5,49,W,5.2
R5,2023,12,7,16,0.001,0.012,0.041,0.2,0.001,0.004,8,12.3,51.6,W,4
R5,2023,12,7,17,0.001,0.014,0.039,0.2,0.001,0.005,9,11.5,51.4,W,3.3
R5,2023,12,7,18,0.001,0.012,0.036,0.2,0.001,0.005,10,10.5,54.9,W,2
R5,2023,12,7,19,0.001,0.013,0.033,0.2,0.001,0.007,9,10.8,47.1,WSW,2.4
R5,2023,12,7,20,0.001,0.015,0.033,0.2,0.001,0.007,9,10.1,48.4,SW,1.2
R5,2023,12,7,21,0.001,0.014,0.033,0.2,0,0.006,10,9.4,53.2,NE,1
R5,2023,12,7,22,0.001,0.013,0.029,0.2,0,0.007,9,7.7,60.9,E,0.6
R5,2023,12,7,23,0.001,0.017,0.03,0.2,0,0.007,11,8.6,57.9,NNE,1.1
R5,2023,12,7,24,0.001,0.016,0.023,0.2,0.001,0.009,12,6.9,65.9,CALM,0.2
R5,2023,12,8,1,0.001,0.014,0.019,0.2,0.001,0.01,9,5.4,72.9,ESE,0.8
R5,2023,12,8,2,0,0.017,0.014,0.2,0.001,0.012,9,4.8,74.1,CALM,0.1
R5,2023,12,8,3,0,0.015,0.008,0.2,0.001,0.016,9,4.5,77.1,ESE,0.4
R5,2023,12,8,4,0.001,0.015,0.009,0.2,0.001,0.015,8,4.7,77.5,SE,0.5
R5,2023,12,8,5,0.001,0.013,0.009,0.2,0.001,0.015,6,4.3,76.2,E,0.7
R5,2023,12,8,6,0,0.013,0.008,0.2,0.002,0.016,9,4.7,75,CALM,0
R5,2023,12,8,7,0,0.011,0.005,0.2,0.006,0.018,8,3.6,79.2,CALM,0.2
R5,2023,12,8,8,0.001,0.014,0.002,0.3,0.042,0.024,10,5.9,68.3,ENE,0.7
R5,2023,12,8,9,0.001,0.02,0.01,0.5,0.016,0.019,10,9.3,57,NNE,1
R5,2023,12,8,10,0.001,0.029,0.02,0.4,0.007,0.013,13,11.1,52.9,W,2.1
R5,2023,12,8,11,0.001,0.036,0.024,0.4,0.007,0.013,18,12.1,51.2,NNE,1.2
R5,2023,12,8,12,0.001,0.039,0.027,0.3,0.006,0.014,19,13.7,46.7,WNW,1.3
R5,2023,12,8,13,0.001,0.04,0.033,0.3,0.004,0.011,19,14.9,41.8,W,1.7
R5,2023,12,8,14,0.002,0.04,0.036,0.3,0.003,0.01,24,15.3,40.7,WSW,0.9
R5,2023,12,8,15,0.001,0.039,0.038,0.3,0.002,0.01,22,16.2,37.6,WSW,1.1
R5,2023,12,8,16,0.001,0.039,0.038,0.3,0.001,0.01,19,15.6,38.6,W,1.1
R5,2023,12,8,17,0.001,0.04,0.025,0.4,0.003,0.021,22,12.6,52.2,CALM,0
R5,2023,12,8,18,0.001,0.042,0.004,0.5,0.01,0.036,27,10.1,63.2,ENE,0.8
R5,2023,12,8,19,0.001,0.041,0.002,0.5,0.012,0.036,24,8.9,67.3,E,0.4
R5,2023,12,8,20,0.001,0.038,0.002,0.5,0.011,0.033,22,7.9,71.6,ENE,0.7
R5,2023,12,8,21,0.001,0.034,0.01,0.4,0.003,0.021,21,8.2,69.8,ENE,0.7
R5,2023,12,8,22,0.001,0.033,0.012,0.4,0.002,0.017,18,7.7,73.5,CALM,0.2
R5,2023,12,8,23,0.001,0.032,0.007,0.4,0.002,0.019,20,6.3,78.5,ENE,0.6
R5,2023,12,8,24,0.001,0.03,0.003,0.4,0.003,0.023,19,5.5,79.9,CALM,0.1
R5,2023,12,9,1,0.001,0.028,0.002,0.4,0.004,0.02,18,4.7,83.3,ENE,0.6
R5,2023,12,9,2,0.001,0.026,0.001,0.4,0.004,0.019,18,4.3,84.8,ESE,0.3
R5,2023,12,9,3,0.001,0.025,0.002,0.3,0.002,0.017,16,3.6,85.4,E,0.6
R5,2023,12,9,4,0,0.026,0.005,0.3,0.002,0.015,16,4.1,85.5,ESE,0.7
R5,2023,12,9,5,0.001,0.023,0.002,0.3,0.004,0.016,16,4,84.2,CALM,0
R5,2023,12,9,6,0,0.022,0.001,0.3,0.012,0.015,18,3,86.2,E,0.4
R5,2023,12,9,7,0.001,0.025,0.001,0.3,0.022,0.017,19,2.8,86.8,ENE,0.5
R5,2023,12,9,8,0.001,0.025,0.002,0.4,0.039,0.018,16,4.4,78.8,ENE,0.5
R5,2023,12,9,9,0.001,0.021,0.005,0.4,0.029,0.019,15,8.1,66.8,CALM,0
R5,2023,12,9,10,0.001,0.02,0.013,0.4,0.012,0.016,13,11.5,50.5,WSW,0.4
R5,2023,12,9,11,0.001,0.026,0.02,0.4,0.008,0.014,21,13.8,43.7,WSW,1.2
R5,2023,12,9,12,0.001,0.019,0.026,0.3,0.005,0.012,10,15.5,42.7,W,2
R5,2023,12,9,13,0.001,0.022,0.026,0.3,0.006,0.015,11,17,43,W,1.5
R5,2023,12,9,14,0.002,0.023,0.032,0.3,0.004,0.014,14,17.9,46.1,W,1.4
R5,2023,12,9,15,0.002,0.023,0.038,0.3,0.002,0.011,13,17.7,49.1,NNW,0.5
R5,2023,12,9,16,0.002,0.024,0.04,0.3,0.001,0.01,14,17,58.2,SW,0.8
R5,2023,12,9,17,0.001,0.024,0.028,0.4,0.004,0.019,17,14.7,68,CALM,0
R5,2023,12,9,18,0.001,0.027,0.004,0.6,0.009,0.038,20,13.1,74.1,CALM,0.2
R5,2023,12,9,19,0.001,0.029,0.003,0.6,0.005,0.031,24,11.6,79.3,CALM,0.1
R5,2023,12,9,20,0.001,0.031,0.004,0.6,0.004,0.027,24,10.7,82.2,E,0.8
R5,2023,12,9,21,0.001,0.033,0.004,0.5,0.003,0.025,24,9.9,84.4,E,0.4
R5,2023,12,9,22,0.001,0.027,0.003,0.6,0.005,0.025,24,9.5,86.1,ENE,0.4
R5,2023,12,9,23,0.001,0.027,0.004,0.5,0.003,0.022,21,8.8,87.3,ENE,0.5
R5,2023,12,9,24,0.001,0.024,0.006,0.5,0.002,0.018,19,8.5,87.2,ESE,0.4
R5,2023,12,10,1,0.001,0.025,0.005,0.4,0.002,0.016,21,7.6,87.4,CALM,0.1
R5,2023,12,10,2,0.001,0.021,0.003,0.4,0.003,0.014,18,7,90,CALM,0.2
R5,2023,12,10,3,0.001,0.019,0.005,0.4,0.002,0.013,14,7,90.3,CALM,0.1
R5,2023,12,10,4,0.001,0.017,0.006,0.3,0.002,0.011,13,6.5,88.4,CALM,0
R5,2023,12,10,5,0.001,0.014,0.006,0.3,0.002,0.009,11,5.9,87.4,CALM,0
R5,2023,12,10,6,0.001,0.014,0.002,0.3,0.003,0.01,11,5.1,88.9,E,0.6
R5,2023,12,10,7,0.001,0.014,0.002,0.3,0.003,0.011,13,4.9,89.3,ESE,0.3
R5,2023,12,10,8,0,0.014,0.003,0.3,0.01,0.01,13,6.4,83,CALM,0.2
R5,2023,12,10,9,0,0.015,0.008,0.3,0.011,0.01,10,9.9,71.4,CALM,0.2
R5,2023,12,10,10,0.001,0.015,0.017,0.3,0.005,0.009,10,12.9,59.9,WSW,0.6
R5,2023,12,10,11,0.001,0.014,0.024,0.3,0.004,0.01,12,15.6,52.5,W,0.7
R5,2023,12,10,12,0.001,0.017,0.035,0.3,0.002,0.007,12,17.1,52.2,W,1.8
R5,2023,12,10,13,0.001,0.017,0.038,0.3,0.002,0.007,13,17.9,52.2,WSW,1.2
R5,2023,12,10,14,0.002,0.019,0.042,0.3,0.001,0.007,12,19.2,51.5,WSW,0.7
R5,2023,12,10,15,0.002,0.023,0.044,0.3,0.001,0.007,15,19.8,50.6,WSW,0.8
R5,2023,12,10,16,0.002,0.024,0.043,0.3,0.001,0.009,18,19.1,56.4,W,0.7
R5,2023,12,10,17,0.001,0.027,0.038,0.3,0.001,0.01,19,18.5,59.4,W,1.9
R5,2023,12,10,18,0.002,0.024,0.037,0.2,0.001,0.007,12,16.9,66.2,WSW,0.7
R5,2023,12,10,19,0.001,0.016,0.034,0.3,0.001,0.008,15,16.1,69.6,W,1.6
R5,2023,12,10,20,0.001,0.023,0.028,0.3,0.001,0.012,14,13.4,79.6,E,0.7
R5,2023,12,10,21,0.001,0.024,0.014,0.4,0.002,0.018,17,11.9,84.1,CALM,0.2
R5,2023,12,10,22,0.001,0.022,0.009,0.4,0.002,0.017,17,10.2,87.7,E,0.7
R5,2023,12,10,23,0.001,0.021,0.006,0.4,0.002,0.016,16,9.8,88.5,NNE,0.4
R5,2023,12,10,24,0,0.023,0.004,0.4,0.002,0.014,16,8.8,90.4,E,0.4
R5,2023,12,11,1,0.001,0.021,0.003,0.4,0.002,0.014,17,8.4,90,ESE,0.3
R5,2023,12,11,2,0.001,0.02,0.007,0.3,0.001,0.011,14,9,88.8,W,1.1
R5,2023,12,11,3,0.001,0.02,0.005,0.3,0.002,0.011,17,8.5,90.3,ESE,0.6
R5,2023,12,11,4,0.001,0.019,0.006,0.3,0.002,0.012,14,9.6,84,E,0.5
R5,2023,12,11,5,0,0.018,0.008,0.2,0.001,0.01,13,9.7,82.6,CALM,0
R5,2023,12,11,6,0.001,0.017,0.004,0.3,0.005,0.012,12,9.3,85.5,CALM,0
R5,2023,12,11,7,0,0.017,0.001,0.3,0.015,0.016,13,9.3,86.1,E,0.5
R5,2023,12,11,8,0.001,0.015,0.004,0.3,0.014,0.019,12,11.1,74.3,E,1.8
R5,2023,12,11,9,0.001,0.016,0.009,0.3,0.008,0.014,11,12.9,69.6,WSW,0.7
R5,2023,12,11,10,0.001,0.011,0.016,0.4,0.008,0.013,9,14.5,58.1,W,1.2
R5,2023,12,11,11,0.001,0.015,0.016,0.4,0.01,0.016,14,15.8,54.6,W,1.1
R5,2023,12,11,12,0.001,0.017,0.019,0.4,0.009,0.016,10,16.8,52.1,W,1.3
R5,2023,12,11,13,0.001,0.016,0.026,0.3,0.005,0.014,12,18,48.8,WSW,1.2
R5,2023,12,11,14,0.002,0.017,0.037,0.3,0.003,0.011,12,18.2,50.9,WSW,0.6
R5,2023,12,11,15,0.002,0.02,0.041,0.3,0.002,0.012,13,18.3,52.3,W,0.8
R5,2023,12,11,16,0.001,0.02,0.041,0.3,0.001,0.014,15,17.4,57.5,SW,0.4
R5,2023,12,11,17,0.001,0.026,0.038,0.3,0.001,0.018,22,16.7,66.7,CALM,0.2
R5,2023,12,11,18,0.002,0.027,0.043,0.4,0.001,0.016,22,16.7,67.7,W,1.3
R5,2023,12,11,19,0.002,0.029,0.039,0.4,0.001,0.018,19,15.9,70.6,ESE,0.9
R5,2023,12,11,20,0.002,0.028,0.029,0.4,0.002,0.023,25,15.1,77.2,CALM,0.2
R5,2023,12,11,21,0.002,0.03,0.02,0.4,0.001,0.022,24,13.8,90.9,E,0.5
R5,2023,12,11,22,0.001,0.025,0.025,0.4,0.001,0.015,22,13.8,88.5,WSW,1.2
R5,2023,12,11,23,0.001,0.023,0.029,0.4,0.001,0.012,20,13.4,94.2,WSW,1.1
R5,2023,12,11,24,0.001,0.02,0.031,0.3,0.001,0.009,20,12.5,96.3,ENE,0.4
R5,2023,12,12,1,0.001,0.019,0.019,0.3,0,0.015,19,12.6,96.8,E,1.3
R5,2023,12,12,2,0.001,0.012,0.033,0.3,0,0.005,13,13.2,96.7,CALM,0.2
R5,2023,12,12,3,0.001,0.011,0.029,0.2,0,0.005,11,13.2,97.3,W,0.9
R5,2023,12,12,4,0.001,0.012,0.022,0.3,0,0.009,11,13.1,98.1,E,1.2
R5,2023,12,12,5,0.001,0.01,0.02,0.3,0,0.009,8,13.2,98.4,W,0.3
R5,2023,12,12,6,0.001,0.006,0.017,0.3,0,0.011,7,13.1,98.4,NNE,0.4
R5,2023,12,12,7,0.001,0.005,0.016,0.3,0.001,0.014,7,13.2,98,W,0.4
R5,2023,12,12,8,0.001,0.006,0.014,0.3,0.002,0.017,7,13.3,97.1,E,0.6
R5,2023,12,12,9,0.001,0.006,0.009,0.3,0.005,0.022,6,13.8,96,W,1
R5,2023,12,12,10,0.001,0.007,0.01,0.4,0.009,0.021,6,14.7,94.4,NNE,0.5
R5,2023,12,12,11,0.001,0.011,0.013,0.4,0.014,0.021,5,16.1,86.2,W,1.7
R5,2023,12,12,12,0.001,0.01,0.014,0.4,0.018,0.024,12,16.8,84.3,WSW,2.1
R5,2023,12,12,13,0.001,0.008,0.023,0.3,0.005,0.016,5,17.4,80,W,2.7
R5,2023,12,12,14,0.001,0.004,0.029,0.3,0.003,0.01,2,18.2,76.7,WSW,1.5
R5,2023,12,12,15,0.001,0.002,0.031,0.2,0.003,0.008,1,19.2,65.7,W,3.1
R5,2023,12,12,16,0.001,0.004,0.03,0.2,0.001,0.008,4,18.2,65.6,W,2.3
R5,2023,12,12,17,0.001,0.004,0.026,0.2,0.001,0.01,6,17,67.5,W,3.8
R5,2023,12,12,18,0,0.004,0.025,0.2,0.001,0.009,4,15.9,66.5,WSW,2.9
R5,2023,12,12,19,0.001,0.002,0.026,0.2,0.001,0.006,2,14.4,66.7,SSW,1.9
R5,2023,12,12,20,0.001,0.005,0.029,0.2,0,0.005,3,13.5,63.7,WSW,3.6
R5,2023,12,12,21,0,0.003,0.031,0.2,0,0.004,2,12.9,62.5,SW,2.7
R5,2023,12,12,22,0,0.002,0.033,0.2,0,0.003,1,12.5,61.7,WSW,3.5
R5,2023,12,12,23,0,0.002,0.034,0.2,0,0.003,2,12,61.5,WSW,2.8
R5,2023,12,12,24,0,0.002,0.035,0.2,0,0.003,1,11.5,60.9,WSW,2
R5,2023,12,13,1,***,0.004,0.036,***,***,***,1,11.1,59.9,SW,1.3
R5,2023,12,13,2,0.001,0.002,0.037,0.2,0,0.003,1,10.8,58.9,WSW,1.6
R5,2023,12,13,3,0,0.004,0.037,0.2,0,0.002,0,10.5,57.6,WSW,2.4
R5,2023,12,13,4,0,0.003,0.036,0.2,0,0.003,4,10,59.8,W,3.4
R5,2023,12,13,5,0.001,0.003,0.033,0.2,0,0.005,1,9.5,60.6,WSW,2.2
R5,2023,12,13,6,0.001,0.005,0.03,0.2,0,0.006,3,8.9,62.1,SW,1.7
R5,2023,12,13,7,0,0.003,0.027,0.2,0,0.008,4,8.3,64.8,SW,0.9
R5,2023,12,13,8,0,0.003,0.023,0.2,0.003,0.013,2,9.2,58.8,WSW,1.7
R5,2023,12,13,9,0.001,0.005,0.024,0.3,0.006,0.013,2,10.3,53.2,W,3.4
R5,2023,12,13,10,0,0.003,0.03,0.3,0.004,0.008,3,11.4,48,WSW,2.1
R5,2023,12,13,11,0,0.005,0.033,0.2,0.004,0.007,5,12.6,43.5,W,2.4